STARLINK-32344, 61719

Orbit data source: Space-Track

STARLINK-32344, 61719 is a payload satellite owned by SpaceX/Seattle (US) in LEO that was launched on Wed, 30 Oct 2024 UTC via an FALCON 9 launch vehicle from the Air Force Eastern Test Range (AFETR). Payload-class satellites include a variety of spacecraft equipped with specific instruments for various scientific and technological missions. These include communications satellites like Starlink; space stations such as the ISS; scientific satellites like the Hubble; Earth observation satellites from companies like Planet Labs, Umbra, and HawkEye 360; GPS; miniature CubeSats for education and research; and military/defense satellites.

Loading next visibility...
Identifier
61719, 2024-196N
Orbit
LEO
Last TLE update
10 hours ago
Origin
Manufacturer
SpaceX/Seattle
Mission
Operational Commercial Communications
Bus & Motor
STARLINK V2M, Unknown motor
Mass
730 kg wet, ~700 kg dry
Launch date (UTC)
2024-10-30 (6 months ago)
Launch vehicle
FALCON 9
Launch site
Air Force Eastern Test Range (AFETR)
Object type
Payload
Rocket body
Debris
Shape & HBR
Box + 2 Pan, 29 m
Radar Cross Section
36.964 m², Large (>1 m²)

Expand to show TLE details & history

TLE from 10 hours ago
0 STARLINK-32344
1 61719U 24196N   25129.25443306  .00000520  00000-0  29673-4 0  9990
2 61719  53.1599  75.5892 0001280  81.5361 278.5785 15.30195839 30569
Epoch: 2025-05-09T06:06Z
Definitive object data (Epoch: 2025-05-09T06:06:23.016Z)
Latitude
-0°
Longitude
116.68009°
Altitude
475.996 km
Speed
7.629 km/s
True Right ascension
05h 02m 21s
True Declination
0° 00' 00"
Sunlit
Object was in daylight at TLE epoch
Visualization TLE readout
Latitude
-38.01587°
Longitude
-29.71279°
Altitude
488.315 km
Speed
7.62 km/s
Apparent Right ascension
16h 12m 25s
Apparent Declination
-50° 56' 21"
Sunlit
Object is in full shadow
Visualization observer readout
Local Sidereal Time
00:41:14
Azimuth
235.029° WSW
Elevation
-52.23°
Doppler factor
1
Orbital elements
Apogee altitude
476.361 km
Perigee altitude
474.607 km
Semi-major axis
6,853.621 km
Eccentricity
0.000128
Inclination
53.1599°
RAAN
75.5892°
Arg. of periapsis
81.5361°
True anomaly
278.564°
Mean anomaly
278.5785°
Eccentric anomaly
278.57125°
Mean motion
3.82528 °/min
BSTAR
0.000029673
Orbital period
94.11 mins
Loading maneuver chart data...
Loading SW <> Apogee altitude chart data...
Loading historical data...
Loading historical data...
Loading historical data...
Loading historical data...
Loading historical data...
Loading historical data...
Loading historical data...

STARLINK-32344 Visibility forecast

Observer location: undefined°, undefined°

Span
Click to sort rows by Start time (UTC) header in descending order
Start Az.
Max El. time (UTC)
Max El. Az.
Max El.
End time (UTC)
End Az.
5 mins2025-05-09 23:33:45.453Z253.269° W2025-05-09 23:35:45.453Z321.761° NNW39.309°2025-05-09 23:38:45.453Z40.202° NE
5 mins2025-05-10 04:29:45.453Z333.277° NNW2025-05-10 04:32:45.453Z28.588° NE20.087°2025-05-10 04:34:45.453Z68.412° E
5 mins2025-05-10 06:08:45.453Z299.308° NW2025-05-10 06:10:45.453Z229.152° WSW42.256°2025-05-10 06:13:45.453Z142.671° SSE
|